Location: Altenplos
(49.9859°N, 11.5067°E)
Time: 13:40:52
(UTC+00:00)

Daily predictions for brighter satellites

Satellite Brightness Start Highest point End
(mag) Time Altitude Azimuth Time Altitude Azimuth Time Altitude Azimuth
Cosmos 1553 Rocket 4.0 18:06:51 10° S 18:12:56 88° E 18:19:05 10° N
Cosmos 2219 Rocket 3.5 18:07:42 10° SW 18:13:07 45° NW 18:18:33 10° NNE
STARLINK-1084 3.8 18:10:37 10° WNW 18:14:45 66° NNE 18:18:54 10° E
STARLINK-1083 4.0 18:10:55 10° WNW 18:14:57 61° SSW 18:18:58 10° SE
STARLINK-1237 4.1 18:11:16 10° SW 18:15:04 40° SE 18:18:52 10° ENE
KORONAS-FOTON 4.1 18:12:47 10° NNW 18:16:38 72° W 18:20:25 10° S
Cosmos 1943 Rocket 2.9 18:12:21 10° NNW 18:17:26 36° NE 18:22:31 10° ESE
STARLINK-1209 2.7 18:14:51 10° WSW 18:17:46 69° SSE 18:20:41 10° ENE
Cosmos 1939 Rocket 4.4 18:14:29 10° SSW 18:18:14 40° W 18:21:57 10° NNW
ATLAS 2AS CENTAUR R/B 4.0 18:12:16 10° NW 18:19:19 34° NNE 18:25:57 10° E
STARLINK-1125 4.0 18:15:30 10° WNW 18:19:31 58° SSW 18:23:31 10° SE
STARLINK-1098 3.8 18:15:37 10° WNW 18:19:46 68° NNE 18:23:54 10° E
STARLINK-1202 4.0 18:15:56 10° SW 18:19:46 42° SE 18:23:38 10° ENE
STARLINK-1228 2.6 18:17:03 10° WSW 18:19:54 71° SSE 18:22:47 10° ENE
SL-14 R/B 3.5 18:16:43 10° N 18:20:43 52° ENE 18:24:39 10° SSE
STARLINK-1109 4.1 18:20:15 10° WNW 18:24:15 55° SSW 18:28:14 10° SE
Cosmos 1980 3.9 18:18:38 10° SSW 18:24:20 80° WNW 18:30:04 10° NNE
SL-8 R/B 3.7 18:19:58 10° W 18:24:44 75° S 18:29:30 10° E
STARLINK-1123 3.8 18:20:36 10° WNW 18:24:45 70° NNE 18:28:51 10° E
ERBS 3.1 18:23:16 10° WSW 18:26:35 52° NNW 18:29:55 10° NE
STARLINK-1246 3.9 18:22:53 10° SW 18:26:49 47° SSE 18:30:46 10° ENE
STARLINK-1091 4.2 18:25:05 10° WNW 18:29:03 51° SSW 18:33:01 10° SE
Cosmos 2315 Rocket 4.3 18:23:12 10° SSE 18:29:11 47° E 18:35:14 10° NNE
Cosmos 1766 3.4 18:25:28 10° SSW 18:29:27 82° W 18:33:28 10° N
STARLINK-1097 3.7 18:25:34 10° WNW 18:29:44 73° NNE 18:33:37 12° ESE
ADEOS Rocket 3.6 18:23:42 10° NNE 18:30:36 70° WNW 18:36:44 10° SSW
USA 234 3.9 18:25:04 10° ENE 18:30:57 34° SE 18:36:48 10° SSW
STARLINK-67 2.5 18:29:29 10° WSW 18:32:04 75° NNW 18:34:39 10° ENE
STARLINK-1201 3.0 18:29:18 10° WSW 18:32:32 68° SSE 18:35:49 10° ENE
Cosmos 1626 2.1 18:29:33 10° N 18:33:16 67° E 18:36:56 10° SSE
STARLINK-1224 3.8 18:30:04 10° SW 18:34:01 52° SSE 18:37:58 10° ENE
Meteor 2-8 Rocket 4.4 18:28:07 10° S 18:34:14 74° E 18:40:21 10° NNE
STARLINK-1099 3.7 18:30:34 10° WNW 18:34:44 75° NNE 18:38:25 13° ESE
STARLINK-1203 3.6 18:31:44 10° SW 18:35:37 56° SSE 18:39:31 10° ENE
H-2A R/B 2.1 18:30:30 10° SSE 18:35:48 81° ENE 18:41:00 10° NNW
SL-16 R/B 2.3 18:32:48 10° S 18:38:16 53° ESE 18:43:46 10° NE
STARLINK-1225 3.7 18:34:39 10° SW 18:38:38 55° SSE 18:42:38 10° ENE
STARLINK-1072 4.4 18:35:26 10° WNW 18:39:17 44° SW 18:43:07 10° SE
STARLINK-1104 3.7 18:35:33 10° WNW 18:39:43 78° NNE 18:43:12 14° ESE
TSX-5 4.3 18:34:38 10° NNW 18:40:19 75° NE 18:44:38 10° SE
SL-08 RB Rocket 3.9 18:36:01 10° SSE 18:40:25 55° ENE 18:44:54 10° N
Cosmos 2333 Rocket 4.2 18:35:50 10° WSW 18:40:51 31° NW 18:45:52 10° NNE
Resurs 01 Rocket 2.7 18:38:54 12° ESE 18:42:14 28° ENE 18:46:00 10° N
STARLINK-1230 3.6 18:39:22 10° SW 18:43:22 59° SSE 18:47:23 10° ENE
STARLINK-1144 3.6 18:40:32 10° WNW 18:44:42 81° NNE 18:47:59 16° ESE
STARLINK-1233 2.8 18:42:49 10° WSW 18:45:57 84° SSE 18:48:52 12° ENE
STARLINK-1212 2.8 18:43:17 10° WSW 18:46:25 85° SSE 18:49:17 12° ENE
FREGAT/IRIS 2.5 18:43:45 10° S 18:46:27 75° WSW 18:49:12 10° NNW
STARLINK-1105 2.8 18:43:43 10° WSW 18:46:52 85° SSE 18:49:44 12° ENE
Cosmos 1302 Rocket 4.0 18:41:49 10° NNW 18:47:08 89° ENE 18:52:26 10° SSE
STARLINK-1206 2.8 18:44:13 10° WSW 18:47:20 86° SSE 18:50:09 12° ENE
STARLINK-1247 2.8 18:44:40 10° WSW 18:47:46 86° SSE 18:50:34 12° ENE
STARLINK-1243 3.6 18:44:09 10° SW 18:48:11 62° SSE 18:52:10 10° ENE
STARLINK-1227 2.8 18:45:05 10° WSW 18:48:13 87° SSE 18:51:02 12° ENE
STARLINK-1218 2.8 18:45:34 10° WSW 18:48:40 87° SSE 18:51:27 13° ENE
Abrixas rocket 3.9 18:47:17 10° S 18:49:01 15° SSE 18:49:06 15° SE
STARLINK-1226 2.8 18:46:00 10° WSW 18:49:08 88° SSE 18:51:53 13° ENE
STARLINK-1254 2.8 18:46:26 10° WSW 18:49:34 88° SSE 18:52:20 13° ENE
STARLINK-1103 3.6 18:45:30 10° WNW 18:49:40 85° NNE 18:52:45 18° ESE
SeaSat 1 4.0 18:45:22 10° NNE 18:49:56 38° NW 18:54:28 10° WSW
STARLINK-1215 2.8 18:46:54 10° WSW 18:50:02 88° SE 18:52:44 13° ENE
Cosmos 1709 Rocket 4.0 18:43:48 10° N 18:50:05 88° E 18:56:14 10° S
STARLINK-1231 2.8 18:47:21 10° WSW 18:50:28 89° SSE 18:53:10 13° ENE
Cosmos 1953 3.2 18:47:51 10° SSE 18:51:13 27° E 18:54:36 10° NNE
STARLINK-1232 2.8 18:48:16 10° WSW 18:51:23 90° ESE 18:54:03 14° ENE
STARLINK-1217 2.8 18:48:42 10° WSW 18:51:50 89° W 18:54:28 14° ENE
STARLINK-1208 2.8 18:49:07 10° WSW 18:52:15 89° NW 18:54:56 14° ENE
STARLINK-1229 2.8 18:49:37 10° WSW 18:52:43 89° NNW 18:55:20 14° ENE
STARLINK-1236 3.5 18:48:54 10° SW 18:52:57 66° SSE 18:56:46 11° ENE
STARLINK-1271 2.8 18:50:04 10° WSW 18:53:11 88° NNW 18:55:47 14° ENE
STARLINK-1270 2.8 18:50:31 10° WSW 18:53:38 88° NNW 18:56:12 14° ENE
STARLINK-1154 2.8 18:50:58 10° WSW 18:54:06 87° NNW 18:56:39 14° ENE
STARLINK-1101 3.6 18:50:29 10° WNW 18:54:39 88° NNE 18:57:32 19° ESE
MONITOR-E 4.3 18:52:22 10° S 18:55:00 59° W 18:57:37 10° NNW
STARLINK-1197 2.8 18:51:53 10° WSW 18:55:00 87° NNW 18:57:31 15° ENE
Cosmos 1269 Rocket 4.0 18:49:50 10° SSW 18:55:08 86° ESE 19:00:29 10° NNE
STARLINK-1189 2.8 18:52:19 10° WSW 18:55:27 86° NNW 18:57:57 15° ENE
STARLINK-1187 2.9 18:53:10 10° WSW 18:56:18 80° NNW 18:58:50 15° ENE
STARLINK-1188 2.8 18:53:14 10° WSW 18:56:21 85° NNW 18:58:49 15° ENE
STARLINK-1198 2.8 18:53:14 10° WSW 18:56:21 85° NNW 18:58:49 15° ENE
SL-24 R/B 4.5 18:52:10 10° NNE 18:56:36 41° E 19:00:29 10° SSE
STARLINK-1235 3.0 18:53:52 10° WSW 18:57:01 74° NNW 18:59:33 15° ENE
CZ-4C R/B 4.2 18:52:32 10° WNW 18:57:27 28° NNW 19:03:10 10° NE
STARLINK-1199 2.9 18:55:09 10° WSW 18:58:18 84° NNW 19:00:43 16° ENE
STARLINK-1191 2.9 18:55:36 10° WSW 18:58:45 83° NNW 19:01:10 16° ENE
STARLINK-1210 2.9 18:56:04 10° WSW 18:59:12 83° NNW 19:01:36 16° ENE
STARLINK-1102 3.6 18:55:28 10° WNW 18:59:38 88° SSW 19:02:19 21° ESE
STARLINK-1221 2.9 18:56:31 10° WSW 18:59:39 82° NNW 19:02:02 16° ENE
STARLINK-1219 2.9 18:56:58 10° WSW 19:00:07 82° NNW 19:02:29 16° ENE
STARLINK-1222 2.9 18:57:25 10° WSW 19:00:33 81° NNW 19:02:54 17° ENE
ISS -3.8 18:57:27 10° WNW 19:00:49 86° N 19:02:41 24° ESE
STARLINK-1211 2.9 18:57:52 10° WSW 19:01:01 81° NNW 19:03:20 17° ENE
STARLINK-1214 2.9 18:58:19 10° WSW 19:01:27 81° NNW 19:03:45 17° ENE
Cosmos 2297 4.2 18:55:59 10° NW 19:01:34 60° WSW 19:07:08 10° S
STARLINK-1245 2.9 18:58:48 10° WSW 19:01:55 80° NNW 19:04:10 17° ENE
STARLINK-1238 2.9 18:59:11 10° WSW 19:02:19 80° NNW 19:04:37 17° ENE
STARLINK-1269 3.5 18:58:42 10° WSW 19:02:46 74° SSE 19:06:12 14° ENE
Cosmos 1455 Rocket 3.8 18:58:31 10° SSW 19:02:48 57° WNW 19:07:07 10° N
Cosmos 2251 Rocket 4.2 18:58:06 10° SSE 19:02:50 33° ESE 19:07:36 10° NE
Cosmos 2074 Rocket 4.3 18:56:51 10° N 19:02:56 49° ENE 19:08:16 14° SE
STARLINK-1205 2.9 19:00:07 10° WSW 19:03:14 79° NNW 19:05:26 18° ENE
BREEZE-M DEB (TANK) 3.8 18:55:29 10° W 19:03:22 84° S 19:05:20 23° ESE
STARLINK-1204 2.9 19:00:36 10° WSW 19:03:43 79° NNW 19:05:53 18° ENE
Cosmos 2084 Rocket 3.6 18:59:35 10° NW 19:04:04 72° NE 19:06:58 21° SE
STARLINK-1111 3.6 19:00:27 10° WNW 19:04:36 84° SSW 19:07:06 23° ESE
Cosmos 1703 4.5 19:04:09 10° NNE 19:07:27 25° ENE 19:08:26 22° E
STARLINK-1200 3.5 19:03:30 10° WSW 19:07:34 78° SSE 19:10:50 16° ENE
Cosmos 2237 Rocket 3.4 19:02:34 10° SW 19:07:56 45° NW 19:13:22 10° NNE
CZ-2C R/B 3.0 19:03:23 10° NNE 19:08:14 38° E 19:13:02 10° SSE
Cosmos 1626 Rocket 3.7 19:04:33 10° NNW 19:08:59 75° W 19:13:20 10° S
STARLINK-1073 3.6 19:05:26 10° WNW 19:09:35 81° SSW 19:11:53 26° ESE
STARLINK-1192 3.5 19:08:14 10° WSW 19:12:19 82° SSE 19:15:24 17° ENE
STARLINK-1121 3.6 19:10:24 10° WNW 19:14:33 77° SSW 19:16:39 28° SE
Cosmos 292 Rocket 3.7 19:10:38 10° NNW 19:15:26 70° ENE 19:18:32 22° SE
ARGOS 3.8 19:10:58 10° S 19:16:17 58° WSW 19:21:38 10° NNW
Cosmos 1602 Rocket 3.7 19:12:30 10° NNW 19:17:00 79° W 19:21:25 10° S
STARLINK-1244 3.5 19:13:09 10° WSW 19:17:15 86° SSE 19:20:08 19° ENE
Cosmos 1656 Rocket 4.4 19:12:29 10° NNW 19:17:49 39° NE 19:20:40 23° ESE
IRIDIUM 104 4.2 19:13:06 10° N 19:18:21 74° E 19:23:34 10° S
STARLINK-1106 3.6 19:15:22 10° WNW 19:19:30 73° SSW 19:21:25 30° SE
STARLINK-1138 3.5 19:17:45 10° WSW 19:21:51 89° SE 19:24:34 21° ENE
MOS 1 Rocket 3.7 19:17:32 10° NNE 19:22:39 53° E 19:27:55 10° S
STARLINK-1234 3.3 19:19:52 10° W 19:22:48 55° NNW 19:24:04 29° NE
USA 186 3.9 19:20:37 10° SSW 19:23:39 29° W 19:26:39 10° NNW
STARLINK-1112 3.7 19:20:23 10° WNW 19:24:30 69° SSW 19:26:14 33° SE
STARLINK-1143 3.5 19:22:38 10° WSW 19:26:45 87° NNW 19:29:16 23° ENE
MetOp-A 4.2 19:21:33 10° SSE 19:26:55 80° WSW 19:32:19 10° NNW
IRIDIUM 114 4.3 19:22:15 10° N 19:27:31 87° E 19:32:44 10° S
COSMOS 2455 4.2 19:23:35 10° NNW 19:28:39 27° NNE 19:32:01 17° ENE
CZ-2C R/B 4.2 19:24:04 10° SSW 19:28:48 41° W 19:33:23 10° NNW
STARLINK-1128 3.7 19:25:22 10° WNW 19:29:28 65° SSW 19:31:01 36° SE
Cosmos 1437 2.7 19:28:23 10° N 19:31:23 53° ENE 19:31:24 53° ENE
Cosmos 1470 3.5 19:28:35 10° SSW 19:32:23 53° WNW 19:36:14 10° N
Cosmos 1726 Rocket 4.2 19:33:41 33° E 19:33:53 33° E 19:37:53 10° NNE
STARLINK-1113 3.8 19:30:21 10° WNW 19:34:26 61° SSW 19:35:47 38° SSE
STARLINK-1241 3.6 19:31:01 10° WSW 19:35:04 81° NNW 19:37:12 27° ENE
SPOT 3 Rocket 4.0 19:30:15 10° S 19:35:25 62° WSW 19:40:37 10° NNW
Cosmos 1825 Rocket 3.5 19:31:39 10° N 19:36:06 67° ENE 19:37:53 34° SSE
IRIDIUM 103 4.4 19:31:27 10° N 19:36:42 79° W 19:41:54 10° S
NOSS 3-4 (A) 4.2 19:32:06 10° NW 19:38:41 50° NE 19:42:42 26° E
NOSS 3-4 (C) 4.2 19:32:12 10° NW 19:38:46 50° NE 19:42:48 26° E
STARLINK-1119 3.9 19:35:20 10° WNW 19:39:24 57° SSW 19:40:34 40° SSE
STARLINK-1239 3.6 19:35:57 10° WSW 19:40:00 78° NNW 19:41:56 30° ENE
Cosmos 2369 Rocket 2.2 19:34:20 10° NNW 19:40:04 86° WSW 19:43:14 28° SSE
Cosmos 1726 2.0 19:42:57 43° SSE 19:44:03 71° E 19:47:48 10° NNE
STARLINK-1114 4.0 19:40:21 10° WNW 19:44:24 53° SSW 19:45:24 42° SSE
STARLINK-1240 3.6 19:40:41 10° WSW 19:44:44 75° NNW 19:46:29 32° ENE
Aureole 2 Rocket 2.7 19:41:35 10° NNW 19:45:05 65° WSW 19:45:56 45° S
Cosmos 1758 Rocket 3.5 19:41:28 10° NNW 19:45:52 84° W 19:47:54 31° S
Cosmos 2263 4.1 19:40:28 10° NNW 19:46:07 80° ENE 19:48:35 35° SE
Cosmos 1908 4.0 19:48:57 35° ENE 19:48:57 35° ENE 19:51:44 10° NNE
SAR-Lupe-2 4.0 19:44:35 10° NNE 19:47:28 44° ENE 19:47:28 44° ENE
CZ-2C R/B 4.3 19:43:35 10° N 19:48:18 62° WNW 19:52:56 10° SSW
STARLINK-1130 (DARKSAT) 4.0 19:45:20 10° WNW 19:49:21 50° SSW 19:50:10 43° S
STARLINK-1216 3.7 19:45:26 10° WSW 19:49:29 73° NNW 19:51:02 36° ENE
NOSS 3-3 (A) 4.0 19:43:57 10° SSW 19:49:36 51° ESE 19:55:58 10° NE
NOSS 3-3 (C) 4.0 19:44:04 10° SSW 19:49:43 51° ESE 19:56:04 10° NE
Meteor 2-17 Rocket 4.4 19:44:50 10° N 19:50:58 66° ENE 19:53:46 33° SSE
ATLAS CENTAUR R/B 4.3 19:50:47 10° NNW 19:51:44 11° N 19:52:41 10° N
Cosmos 1953 Rocket 3.5 19:47:56 10° N 19:52:22 68° ENE 19:53:22 50° SE
STARLINK-1209 3.6 19:49:58 10° W 19:52:50 45° N 19:52:50 45° N
Terra 3.1 19:53:53 24° ENE 19:54:07 24° ENE 19:57:54 10° N
STARLINK-1237 3.7 19:50:13 10° W 19:54:16 70° NNW 19:55:38 39° ENE
STARLINK-1084 4.1 19:50:18 10° WNW 19:54:18 47° SSW 19:54:56 43° S
Cosmos 2184 Rocket 4.1 19:48:34 10° NNW 19:54:56 79° W 19:59:37 19° S
STARLINK-1228 3.7 19:52:11 10° W 19:54:50 44° NNW 19:54:50 44° NNW
Spot 2 Rocket 3.4 19:55:41 41° SE 19:57:26 74° ENE 20:02:35 10° NNW
STARLINK-1202 3.8 19:54:57 10° W 19:59:01 68° NNW 20:00:12 43° NE
STARLINK-1098 4.2 19:55:19 10° WNW 19:59:16 44° SW 19:59:43 42° SSW
Cosmos 1606 Rocket 3.4 19:59:08 48° S 20:00:16 75° E 20:04:44 10° NNE
Cosmos 1943 Rocket 2.9 19:56:02 10° NW 20:01:21 48° WSW 20:04:35 23° S
SPOT 1/Viking Rocket 3.7 20:00:50 45° ESE 20:01:57 55° ENE 20:07:03 10° N
ERBS 4.3 20:00:36 10° WNW 20:03:28 25° N 20:04:36 20° NNE
STARLINK-1123 4.3 20:00:19 10° WNW 20:04:14 41° SW 20:04:30 40° SSW
Cosmos 1943 3.2 20:01:04 21° S 20:04:46 58° ESE 20:10:21 10° NE
STARLINK-1246 3.9 20:02:11 10° W 20:06:16 65° NNW 20:07:11 48° NE
Meteor 2-10 4.2 20:01:26 10° SSW 20:06:48 78° WNW 20:12:24 10° N
SL-8 R/B 3.8 20:02:26 10° W 20:07:07 57° SSW 20:07:34 54° S
STARLINK-1201 3.8 20:05:43 10° W 20:08:41 48° NNW 20:08:41 48° NNW
STARLINK-1097 4.4 20:05:18 10° WNW 20:09:10 38° SW 20:09:16 38° SSW
ATLAS 2AS CENTAUR R/B 2.9 20:03:52 10° NW 20:11:38 71° NE 20:14:22 41° ESE
STARLINK-1224 3.9 20:09:20 10° W 20:13:23 63° N 20:13:58 55° NNE
Cosmos 1340 Rocket 4.3 20:15:29 26° NE 20:15:29 26° NE 20:17:31 10° NNE
USA 234 3.2 20:07:54 10° ENE 20:14:28 90° NNW 20:21:02 10° WSW
STARLINK-1203 3.9 20:10:44 10° W 20:14:40 60° N 20:15:06 56° NNE
Cosmos 2154 Rocket 4.0 20:09:39 10° N 20:16:03 84° W 20:18:59 35° S
USA 245 4.0 20:15:17 51° S 20:16:41 87° WSW 20:22:39 10° NNW
STARLINK-1225 3.9 20:13:56 10° W 20:17:58 61° N 20:18:23 57° NNE
Resurs 01 Rocket 2.8 20:16:28 23° SSW 20:18:36 38° W 20:22:45 10° NNW
Cosmos 1328 4.1 20:16:09 10° NNW 20:20:06 60° W 20:20:25 57° WSW
Cosmos 921 Rocket 3.8 20:18:02 10° N 20:21:21 38° NE 20:21:21 38° NE
SL-16 R/B 3.9 20:17:32 10° WSW 20:22:39 34° NW 20:27:48 10° NNE
STARLINK-1230 3.9 20:18:42 10° W 20:22:45 60° N 20:22:57 59° N
Cosmos 2228 3.2 20:22:39 54° SW 20:23:27 69° WNW 20:27:46 10° N
Cosmos 967 Rocket 4.4 20:18:26 10° SSW 20:24:52 78° SE 20:31:23 10° NE
Cosmos 1953 4.2 20:24:05 10° SW 20:27:34 29° WNW 20:31:04 10° N
STARLINK-1243 4.0 20:23:33 10° W 20:27:36 59° N 20:27:36 59° N
Iridium 4 Rocket 4.3 20:26:03 10° N 20:28:55 31° NE 20:28:55 31° NE
Cosmos 962 Rocket 4.3 20:24:05 10° N 20:30:21 82° E 20:31:43 56° SSE
STARLINK-1236 4.1 20:28:21 10° W 20:32:12 57° NNW 20:32:12 57° NNW
Nadezhda 1 Rocket 4.2 20:29:47 20° SSW 20:34:22 73° W 20:40:47 10° N
SL-8 Rocket 4.0 20:30:01 10° N 20:36:16 64° ENE 20:37:01 59° ESE
ISS -1.3 20:34:28 10° W 20:35:39 18° W 20:35:39 18° W
Cosmos 2058 Rocket 3.3 20:42:38 68° NNW 20:42:38 68° NNW 20:46:38 10° N
STARLINK-1269 4.4 20:38:18 10° W 20:41:43 50° NW 20:41:43 50° NW
SPOT 5 3.0 20:44:26 59° N 20:44:26 59° N 20:48:02 10° NNW
Cosmos 614 Rocket 4.2 20:44:49 57° NE 20:44:49 57° NE 20:49:04 10° NNE
Cosmos 1603 4.0 20:38:29 10° SW 20:44:04 64° WNW 20:49:41 10° NNE
Cosmos 2366 rocket 4.0 20:38:00 10° N 20:44:04 58° ENE 20:44:18 58° E
CZ-4C R/B 4.3 20:42:39 10° NW 20:48:02 27° NNE 20:53:35 12° ENE
CZ-2C R/B 4.0 20:43:49 10° N 20:48:30 35° WNW 20:53:09 10° SW
IGS 5A 4.2 20:49:02 49° WNW 20:49:02 49° WNW 20:52:40 10° NNW
ERS-1 Rocket 2.9 20:48:38 80° W 20:48:38 80° W 20:53:41 10° NNW
Landsat 7 4.3 20:49:40 53° WSW 20:49:54 53° W 20:54:35 10° NNW
Cosmos 1980 Rocket 4.4 20:48:33 10° N 20:51:31 14° NNE 20:53:43 12° NE
Cosmos 1959 Rocket 4.4 20:53:13 10° N 20:59:37 76° ENE 20:59:53 75° ESE
Cosmos 1656 Rocket 4.3 20:56:07 10° NW 21:01:30 44° WSW 21:02:03 43° SW
Aureole 1 Rocket 4.2 21:01:51 33° SSW 21:05:44 86° WNW 21:12:10 10° NNE
COSMOS 2455 2.8 21:09:21 10° NW 21:15:09 81° N 21:15:09 81° N
In-Cosmos 22 Rocket 4.3 21:14:46 10° NNW 21:20:10 76° NW 21:20:10 76° NW
Cosmos 1461 4.4 21:18:07 10° NW 21:20:56 38° NW 21:20:56 38° NW
Cosmos 2369 Rocket 4.4 21:19:57 10° WNW 21:23:14 16° W 21:25:04 14° WSW
Cosmos 1821 Rocket 4.4 21:21:59 10° N 21:27:28 51° NE 21:27:28 51° NE
Cosmos 1763 Rocket 4.4 21:23:36 10° NNW 21:27:28 41° NNE 21:27:28 41° NNE
NOSS 3-4 (A) 4.0 21:23:02 10° NW 21:29:50 56° SW 21:30:09 56° SW
NOSS 3-4 (C) 4.0 21:23:07 10° NW 21:29:56 57° SW 21:30:14 56° SW
Terra 2.9 21:32:45 41° NW 21:32:45 41° NW 21:36:14 10° NNW
ATLAS CENTAUR R/B 4.0 21:29:54 10° NNW 21:31:52 15° NNE 21:31:52 15° NNE
Cosmos 1818 4.4 21:39:11 46° N 21:39:11 46° N 21:43:17 10° NE
USA 234 3.9 21:50:56 10° ENE 21:57:15 53° N 22:03:33 10° W
ATLAS 2AS CENTAUR R/B 3.8 21:55:28 10° NW 22:01:48 35° WSW 22:01:48 35° WSW
Cosmos 1697 Rocket 3.7 22:06:02 10° NNW 22:10:12 42° N 22:10:12 42° N
SL-16 R/B 4.4 22:10:06 10° N 22:13:48 17° NNE 22:15:22 16° NE
Mayak 1.3 22:14:07 10° N 22:15:32 20° N 22:15:32 20° N
Cosmos 2322 Rocket 4.4 22:24:22 10° N 22:28:10 18° NE 22:29:38 16° NE
Cosmos 1980 Rocket 3.4 22:31:36 10° NNW 22:35:28 37° N 22:35:28 37° N
CZ-4C R/B 3.3 22:31:25 10° NW 22:38:04 52° NE 22:38:44 51° NE
Cosmos 2082 Rocket 4.1 23:00:52 22° NE 23:00:52 22° NE 23:02:55 10° NE
ATLAS 5 CENTAUR R/B 3.9 23:20:05 23° NNE 23:20:05 23° NNE 23:22:35 10° NE
Cosmos 1833 Rocket 4.0 23:28:31 35° NNE 23:28:31 35° NNE 23:31:43 10° NNE
CZ-2D R/B 4.5 23:30:55 10° NE 23:32:53 15° ENE 23:32:53 15° ENE
Resurs 1-4 Rocket 4.5 23:32:24 10° NE 23:34:06 14° ENE 23:34:06 14° ENE
USA 234 3.9 23:33:25 10° E 23:39:42 51° N 23:45:59 10° WNW
SL-16 R/B 3.4 23:52:44 41° ENE 23:52:47 41° ENE 23:58:34 10° N
